COSMOS 2596 [GLONASS-K1]

Last updated on Tue Oct 14 2025 00:02:05 GMT+0000 (Coordinated Universal Time)

1 65590U 25206B 25285.23697027 -.00000042 00000+0 00000+0 0 9993 2 65590 64.7760 323.6124 0013274 301.7091 73.6321 2.13100810 622
UTC large
Height (km)
Speed (km/s)
/
Latitude / Longitude
Inclination (degrees)
Orbital Period (minutes)
Azimuth
Elevation
Range (km)
Doppler Factor

Next 0 passes for location: London (51.5072 / 0.1276)

Sorry there are no passes over London.
COSMOS 2596 [GLONASS-K1]